Home   Weather   Chittorgarh   Past weeks

Flag for India Past Weather in Chittorgarh, Rajasthan, India — Yesterday and Last 2 Weeks

Now
93 °F

Broken clouds.


Feels Like: 103 °F
Forecast: 78 / 89 °F
Wind: 8 mph from East

Location: Jaipur / Sanganer

Current Time: Aug 19, 2017 at 5:06:27 pm

Latest Report: Aug 19, 2017 at 4:00 pm


Visibility: 2 mi

Pressure: 29.62 "Hg (27.94 "Hg at 524m altitude)

Humidity: 53%

Dew Point: 73 °F

Location of ChittorgarhLocation

Past Weather in Chittorgarh — Graph

°F

Chittorgarh Temperature Yesterday

Maximum temperature yesterday: 95 °F (at 1:00 pm)
Minimum temperature yesterday: 81 °F (at 4:30 am)
Average temperature yesterday: 87 °F

High & Low Weather Summary for the Past Weeks

 TemperatureHumidityPressure
High95 °F (Aug 16, 3:30 pm)100% (Aug 7, 11:00 pm)29.80 "Hg (Aug 7, 11:00 pm)
Low77 °F (Aug 5, 6:00 am)41% (Aug 18, 2:00 pm)29.50 "Hg (Aug 4, 4:30 pm)
Average84 °F73%29.65 "Hg
* Reported Aug 4 3:30 pm — Aug 19 3:30 pm, Chittorgarh. Weather by CustomWeather, © 2017

Note: Actual official high and low records may vary slightly from our data, if they occured in-between our weather recording intervals... More about our weather records

Advertising

Chittorgarh Weather History for the Previous 24 Hours

Scroll right to see more
 ConditionsComfort  
Time TempWeatherWind HumidityBarometerVisibility
3:30 pm
Sat, Aug 19
91 °FBroken clouds.7 mph59%29.62 "Hg2 mi
3:00 pm91 °FBroken clouds.8 mph59%29.62 "Hg2 mi
2:30 pm91 °FBroken clouds.8 mph59%29.65 "Hg2 mi
2:00 pm91 °FBroken clouds.9 mph59%29.65 "Hg2 mi
1:30 pm91 °FBroken clouds.9 mph59%29.65 "Hg2 mi
1:00 pm90 °FBroken clouds.10 mph67%29.65 "Hg2 mi
12:30 pm91 °FBroken clouds.9 mph59%29.68 "Hg2 mi
12:00 pm95 °FScattered clouds.10 mph53%29.68 "Hg2 mi
11:30 am93 °FScattered clouds.8 mph56%29.68 "Hg2 mi
11:00 am93 °FScattered clouds.9 mph56%29.68 "Hg2 mi
10:30 am91 °FScattered clouds.3 mph56%29.71 "Hg2 mi
10:00 am90 °FScattered clouds.3 mph59%29.71 "Hg2 mi
9:30 am90 °FScattered clouds.7 mph59%29.71 "Hg2 mi
9:00 am88 °FScattered clouds.7 mph62%29.71 "Hg2 mi
8:30 am86 °FScattered clouds.7 mph66%29.68 "Hg2 mi
8:00 am86 °FScattered clouds.3 mph66%29.68 "Hg2 mi
7:00 am84 °FScattered clouds.5 mph66%29.68 "Hg2 mi
6:30 am84 °FScattered clouds.3 mph66%29.65 "Hg2 mi
6:00 am84 °FPassing clouds.3 mph66%29.65 "Hg2 mi
5:00 am84 °FPassing clouds.2 mph70%29.62 "Hg2 mi
4:30 am84 °FPassing clouds.2 mph66%29.62 "Hg2 mi
4:00 am84 °FPassing clouds.3 mph66%29.62 "Hg2 mi
3:00 am84 °FPassing clouds.2 mph70%29.62 "Hg2 mi
2:30 am86 °FPassing clouds.3 mph66%29.62 "Hg2 mi
1:00 am86 °FPassing clouds.2 mph66%29.65 "Hg2 mi
12:30 am86 °FFog.6 mph66%29.65 "Hg2 mi
12:00 am84 °FFog.2 mph74%29.65 "Hg2 mi
11:30 pm
Fri, Aug 18
84 °FFog.1 mph74%29.65 "Hg2 mi
11:00 pm84 °FFog.5 mph70%29.65 "Hg2 mi
10:30 pm84 °FFog.7 mph70%29.65 "Hg2 mi
10:00 pm84 °FFog.3 mph74%29.65 "Hg2 mi
8:30 pm86 °FPassing clouds.6 mph62%29.62 "Hg2 mi
8:00 pm88 °FPassing clouds.7 mph59%29.62 "Hg2 mi
7:30 pm88 °FScattered clouds.5 mph59%29.62 "Hg2 mi
7:00 pm88 °FScattered clouds.6 mph62%29.59 "Hg2 mi
6:30 pm86 °FScattered clouds.7 mph62%29.59 "Hg2 mi
6:00 pm90 °FScattered clouds.6 mph55%29.56 "Hg2 mi
5:30 pm90 °FScattered clouds.8 mph55%29.56 "Hg2 mi
5:05 pm90 °FScattered clouds.15 mph52%29.56 "Hg2 mi
Weather by CustomWeather, © 2017

See weather overviewHow to use our weather pages